TimeCDT,TemperatureF,Dew PointF,Humidity,Sea Level PressureIn,VisibilityMPH,Wind Direction,Wind SpeedMPH,Gust SpeedMPH,PrecipitationIn,Events,Conditions,WindDirDegrees,DateUTC
12:10 AM,50.0,48.9,96,30.00,10.0,NNW,5.8,-,N/A,,Overcast,330,2013-04-28 05:10:00
12:23 AM,50.0,48.9,96,30.01,10.0,NNW,4.6,-,N/A,,Overcast,330,2013-04-28 05:23:00
12:52 AM,50.0,48.9,96,30.01,10.0,NNW,6.9,-,N/A,,Overcast,330,2013-04-28 05:52:00
1:52 AM,50.0,48.0,93,29.99,10.0,WNW,3.5,-,N/A,,Overcast,300,2013-04-28 06:52:00
2:28 AM,50.0,48.0,93,29.99,10.0,NW,6.9,-,N/A,,Overcast,310,2013-04-28 07:28:00
2:39 AM,50.0,46.9,89,29.99,10.0,NW,9.2,-,N/A,,Overcast,310,2013-04-28 07:39:00
2:52 AM,50.0,46.9,89,29.99,10.0,NW,8.1,-,N/A,,Overcast,320,2013-04-28 07:52:00
3:29 AM,48.9,46.9,93,29.98,10.0,NW,6.9,-,N/A,,Overcast,310,2013-04-28 08:29:00
3:52 AM,48.9,46.9,93,29.98,10.0,NW,5.8,-,N/A,,Overcast,310,2013-04-28 08:52:00
4:04 AM,48.9,46.0,90,29.98,10.0,NW,5.8,-,N/A,,Overcast,310,2013-04-28 09:04:00
4:52 AM,50.0,46.0,86,29.98,10.0,West,3.5,-,N/A,,Overcast,280,2013-04-28 09:52:00
5:52 AM,50.0,46.0,86,29.99,10.0,WNW,6.9,-,N/A,,Overcast,300,2013-04-28 10:52:00
6:52 AM,50.0,46.0,86,29.99,10.0,West,5.8,-,N/A,,Overcast,280,2013-04-28 11:52:00
7:52 AM,50.0,46.0,86,30.02,10.0,West,9.2,-,N/A,,Overcast,260,2013-04-28 12:52:00
8:52 AM,50.0,46.0,86,30.04,10.0,WNW,5.8,-,N/A,,Overcast,290,2013-04-28 13:52:00
9:29 AM,51.1,46.0,83,30.04,10.0,WNW,5.8,-,N/A,,Overcast,290,2013-04-28 14:29:00
9:52 AM,51.1,46.0,83,30.04,10.0,West,5.8,-,N/A,,Overcast,280,2013-04-28 14:52:00
10:52 AM,54.0,46.9,77,30.03,10.0,West,8.1,-,N/A,,Overcast,280,2013-04-28 15:52:00
11:52 AM,57.9,48.9,72,30.01,10.0,WSW,5.8,-,N/A,,Mostly Cloudy,250,2013-04-28 16:52:00
12:32 PM,59.0,48.9,69,29.99,10.0,NW,5.8,-,N/A,,Scattered Clouds,320,2013-04-28 17:32:00
12:52 PM,61.0,50.0,67,29.98,10.0,WNW,5.8,-,N/A,,Clear,290,2013-04-28 17:52:00
1:52 PM,63.0,51.1,65,29.96,10.0,Variable,5.8,-,N/A,,Clear,0,2013-04-28 18:52:00
2:52 PM,66.0,51.1,59,29.95,10.0,West,9.2,-,N/A,,Clear,270,2013-04-28 19:52:00
3:52 PM,68.0,48.9,50,29.92,10.0,NNW,6.9,-,N/A,,Clear,330,2013-04-28 20:52:00
4:52 PM,69.1,45.0,42,29.90,10.0,WSW,3.5,-,N/A,,Clear,240,2013-04-28 21:52:00
5:52 PM,69.1,46.0,44,29.88,10.0,South,3.5,-,N/A,,Clear,170,2013-04-28 22:52:00
6:52 PM,68.0,48.0,49,29.87,10.0,South,3.5,-,N/A,,Clear,170,2013-04-28 23:52:00
7:52 PM,62.1,48.9,62,29.88,10.0,South,6.9,-,N/A,,Clear,190,2013-04-29 00:52:00
8:52 PM,57.9,46.9,67,29.88,10.0,South,5.8,-,N/A,,Clear,170,2013-04-29 01:52:00
9:52 PM,57.0,46.9,69,29.88,10.0,SSE,10.4,-,N/A,,Clear,150,2013-04-29 02:52:00
10:52 PM,57.9,46.9,67,29.88,10.0,SSE,11.5,-,N/A,,Clear,160,2013-04-29 03:52:00
11:52 PM,57.9,48.9,72,29.88,10.0,SSE,12.7,-,N/A,,Clear,160,2013-04-29 04:52:00